User: anonymous   Login
Location: Belfast
(54.5830°N, 5.9330°W)
Time: 00:39:03
(UTC+01:00)
Language:

Coronas F rocket - Orbit

View from above orbital plane
View from above orbital plane
View from above satellite
View from above satellite

Ground track
Ground track

The orbit data is extracted from the following two-line orbital elements,

1 26874U 01032B   17112.89977409 +.01135327 -12141-5 +29391-3 0  9992
2 26874 082.4361 296.1506 0004322 234.9477 125.1411 16.28720315884964
Epoch (UTC): 22 April 2017 21:35:40
Eccentricity: 0.0004322
inclination: 82.4361°
perigee height: 193 km
apogee height: 199 km
right ascension of ascending node: 296.1506°
argument of perigee: 234.9477°
revolutions per day: 16.28720315
mean anomaly at epoch: 125.1411°
orbit number at epoch: 88496

The dashed part of the orbit path shows where the satellite is in the earth's shadow,  

DLR